Regional Weather Roundup
Issued by NWS Sioux Falls, SD

Home | Current Version | Previous Version | Graphics & Text | Print | Product List | Glossary On
Versions: 1 2 3 4 5 6 7 8 9 10 11 12 13 14 15 16 17 18 19 20 21 22 23 24 25 26 27 28 29 30 31 32 33 34 35 36 37 38 39 40 41 42 43 44 45 46 47 48 49 50
000
ASUS43 KFSD 302202
RWRFSD

WEATHER ROUNDUP FOR SE SOUTH DAKOTA/SW MINNESOTA/NW IOWA
NATIONAL WEATHER SERVICE SIOUX FALLS SD
500 PM CDT SAT JUL 30 2016

NOTE: "FAIR" INDICATES FEW OR NO CLOUDS BELOW 12,000 FEET WITH NO
SIGNIFICANT WEATHER AND OR OBSTRUCTIONS TO VISIBILITY.


SDZ038>040-050-052>070-302300-
SOUTHEAST SOUTH DAKOTA

CITY           SKY/WX    TMP DP  RH WIND       PRES   REMARKS
BROOKINGS      MOSUNNY   78  59  51 SE13G20   29.97F
CHAMBERLAIN    MOSUNNY   87  66  49 SE15G21   29.88F
HURON          MOSUNNY   84  58  40 S13G23    29.90F
MADISON        FAIR      77  57  50 S10       29.97F
MITCHELL       MOSUNNY   83  61  47 SE15      29.91F
SIOUX FALLS    MOSUNNY   81  58  45 SE13G18   29.96F
WINNER         FAIR      88  63  43 S13G23    29.88F
YANKTON        MOSUNNY   81  61  50 SE16      29.92F
$$

MNZ071-072-080-081-089-090-097-098-302300-
SOUTHWEST MINNESOTA

CITY           SKY/WX    TMP DP  RH WIND       PRES   REMARKS
FAIRMONT       SUNNY     77  61  57 SE6       29.98F
JACKSON        MOSUNNY   79  55  44 S5        30.00S
LUVERNE        SUNNY     77  55  47 SE6       29.99S
MARSHALL       SUNNY     78  57  48 SE6       29.97F
MONTEVIDEO     SUNNY     82  59  44 S6        29.99F
REDWOOD FALLS  SUNNY     80  52  37 S8        29.97F
TRACY          SUNNY     79  58  48 SE3       29.98F
WINDOM         SUNNY     81  57  44 S3        29.99F
WORTHINGTON    SUNNY     77  60  55 SE7       30.00F
$$

IAZ001>003-012>014-020>022-031-032-NEZ013-014-SDZ071-302300-
NORTHWEST IOWA

CITY           SKY/WX    TMP DP  RH WIND       PRES   REMARKS
CHEROKEE       PTSUNNY   81  60  49 S10       29.98S
DENISON        MOSUNNY   79  63  57 S5G12     29.96F
ESTHERVILLE    MOSUNNY   76  64  66 SE8       29.99S
LE MARS        SUNNY     82  59  44 S9G15     29.97F
SHELDON        MOSUNNY   79  61  53 S6        29.97F
SIOUX CITY     MOSUNNY   79  62  56 S9        29.96F
SPENCER        MOSUNNY   78  59  51 SE7       29.99S
STORM LAKE     MOSUNNY   79  64  61 S8        29.99F
$$

ABBREVIATIONS USED IN REMARKS
   TC - TEMPERATURE IN CELSIUS
  WCI - WIND CHILL INDEX
   HX - HEAT INDEX
  VSB - VISIBILITY




USA.gov is the U.S. government's official web portal to all federal, state and local government web resources and services.